Change the Weather History Date:

Tuesday, October 23, 2012

  Actual Average Record
Temperature  
Mean Temperature 65 °F 47 °F  
Max Temperature 73 °F 62 °F 77 °F (2003)
Min Temperature 57 °F 33 °F 19 °F (2008)
Degree Days  
Heating Degree Days 0 18  
Month to date heating degree days 226 308  
Since 1 July heating degree days 303 435  
Cooling Degree Days 0 0  
Month to date cooling degree days 0 0  
Year to date cooling degree days 906 643  
Growing Degree Days 14 (Base 50)    
Moisture  
Dew Point 25 °F    
Average Humidity 24    
Maximum Humidity 33    
Minimum Humidity 14    
Precipitation  
Precipitation T in 0.02 in 0.22 in (2002)
Month to date precipitation 0.46 1.00  
Year to date precipitation 5.33 9.65  
Sea Level Pressure  
Sea Level Pressure 29.68 in    
Wind  
Wind Speed 11 mph (SSW)    
Max Wind Speed 31 mph    
Max Gust Speed 46 mph    
Visibility 10 miles    
Events Rain    
T = Trace of Precipitation, MM = Missing Value Source: NWS Daily Summary

Daily Weather History Graph

Daily Weather History Graph

Search for Another Location

Airport or City:

Trip Planner

Search our weather history database for the weather conditions in past years. The results will help you decide how hot, cold, wet, or windy it might be!

Date:

Astronomy

Oct. 23, 2012 Rise Set
Actual Time 7:29 AM MDT 6:21 PM MDT
Civil Twilight 7:02 AM MDT 6:48 PM MDT
Nautical Twilight 6:31 AM MDT 7:19 PM MDT
Astronomical Twilight 6:00 AM MDT 7:50 PM MDT
Moon 3:03 PM MDT (10/23) 1:28 AM MDT (10/23)
Length of Visible Light 11h 46m
Length of Day
10h 52m
Waxing Gibbous, 67% of the Moon is Illuminated
Oct 23
Waxing Gibbous
Oct 29
Full
Nov 6
Last Quarter
Nov 13
New
Nov 20
First Quarter

Hourly Weather History & Observations

Time (MDT) Temp. Dew Point Humidity Pressure Visibility Wind Dir Wind Speed Gust Speed Precip Events Conditions
12:53 AM 63.0 °F 30.0 °F 29% 29.65 in 9.0 mi SSW 28.8 mph 41.4 mph N/A   Clear
1:53 AM 63.0 °F 30.0 °F 29% 29.67 in 10.0 mi SSW 24.2 mph 43.7 mph N/A   Clear
2:53 AM 63.0 °F 28.0 °F 27% 29.66 in 10.0 mi SSE 11.5 mph 23.0 mph N/A   Clear
3:53 AM 61.0 °F 28.9 °F 30% 29.67 in 10.0 mi South 5.8 mph - N/A   Clear
4:53 AM 59.0 °F 30.9 °F 35% 29.67 in 10.0 mi SSW 16.1 mph 23.0 mph 0.00 in Rain Light Rain
5:53 AM 60.1 °F 28.0 °F 30% 29.67 in 10.0 mi SSW 16.1 mph 27.6 mph 0.00 in   Clear
6:53 AM 59.0 °F 27.0 °F 29% 29.70 in 10.0 mi SW 15.0 mph 21.9 mph N/A   Clear
7:53 AM 57.9 °F 27.0 °F 31% 29.74 in 10.0 mi Calm Calm - N/A   Clear
8:53 AM 60.1 °F 28.0 °F 30% 29.73 in 10.0 mi Variable 5.8 mph - N/A   Clear
9:53 AM 63.0 °F 27.0 °F 26% 29.73 in 10.0 mi Calm Calm - N/A   Partly Cloudy
11:53 AM 64.9 °F 21.0 °F 19% 29.72 in 10.0 mi SW 6.9 mph - N/A   Clear
12:53 PM 66.9 °F 18.0 °F 15% 29.70 in 10.0 mi WSW 12.7 mph 20.7 mph N/A   Clear
1:53 PM 70.0 °F 19.0 °F 14% 29.65 in 10.0 mi WSW 16.1 mph 27.6 mph N/A   Clear
2:53 PM 72.0 °F 19.9 °F 14% 29.63 in 10.0 mi SSW 21.9 mph 31.1 mph N/A   Clear
3:53 PM 71.1 °F 19.0 °F 14% 29.64 in 10.0 mi WSW 19.6 mph 25.3 mph N/A   Clear
4:53 PM 69.1 °F 21.0 °F 16% 29.65 in 10.0 mi SW 13.8 mph 29.9 mph N/A   Clear
5:53 PM 68.0 °F 23.0 °F 18% 29.65 in 10.0 mi SSW 15.0 mph 19.6 mph N/A   Clear
6:53 PM 64.9 °F 21.9 °F 19% 29.67 in 10.0 mi Calm Calm - N/A   Clear
7:53 PM 62.1 °F 24.1 °F 23% 29.69 in 10.0 mi NW 4.6 mph - N/A   Clear
8:53 PM 59.0 °F 27.0 °F 29% 29.69 in 10.0 mi East 8.1 mph - N/A   Clear
9:53 PM 62.1 °F 27.0 °F 26% 29.68 in 10.0 mi East 8.1 mph - N/A   Clear
10:53 PM 57.0 °F 28.0 °F 33% 29.70 in 10.0 mi South 5.8 mph - N/A   Clear
11:53 PM 61.0 °F 28.0 °F 29% 29.69 in 10.0 mi Calm Calm - N/A   Clear